Regional Weather Roundup
Issued by NWS

Home | Current Version | Previous Version | Text Only | Print | Product List | Glossary On
Versions: 1 2 3 4 5 6 7 8 9 10 11 12 13 14 15 16 17 18 19 20 21 22 23 24 25 26 27 28 29 30 31 32 33 34 35 36 37 38 39 40 41 42 43 44 45 46 47 48 49 50
000
ASUS43 KLSX 250859
RWRMO

WEATHER SUMMARY FOR MISSOURI
NATIONAL WEATHER SERVICE SPRINGFIELD MO
400 AM CDT FRI JUL 25 2014

NOTE: "FAIR" INDICATES FEW OR NO CLOUDS BELOW 12,000 FEET WITH NO
       SIGNIFICANT WEATHER AND/OR OBSTRUCTIONS TO VISIBILITY.
       CURRENT SKY AND/OR WEATHER CONDITIONS ARE NOT AVAILABLE FOR
       CHILLICOTHE AND FARMINGTON.

MOZ001>031-035>038-043-044-053-054-251000-
...NORTHERN AND WESTERN MISSOURI...

CITY           SKY/WX    TMP DP  RH WIND       PRES   REMARKS
KANSAS CTY INT MOCLDY    71  60  68 S13       29.88F
KANSAS C DTWN  MOCLDY    74  59  59 S12       29.88F
LEE`S SUMMIT   MOCLDY    72  58  61 S14       29.91F
ST JOSEPH      MOCLDY    72  60  66 S9        29.87F
CHILLICOTHE      N/A     68  56  65 SE7       29.93S
KIRKSVILLE     CLOUDY    64  55  72 S13       29.98R

$$
MOZ066>068-077>081-088>096-101>105-251000-
...SOUTHWEST MISSOURI...

CITY           SKY/WX    TMP DP  RH WIND       PRES   REMARKS
SPRINGFIELD    CLEAR     67  58  72 S12       30.01S
JOPLIN         MOCLDY    70  64  81 S8        29.98F

$$
MOZ032>034-039>042-045>050-055>058-069>072-251000-
...CENTRAL MISSOURI...

CITY           SKY/WX    TMP DP  RH WIND       PRES   REMARKS
COLUMBIA       MOCLDY    63  55  75 SE9       29.99F
JEFFERSON CITY PTCLDY    65  55  70 E8        29.99S
ROLLA          CLEAR     64  54  69 S9        30.01S
SEDALIA        MOCLDY    66  56  70 S9        29.94F
OSAGE BEACH    PTCLDY    63  54  72 S7        29.99F

$$
MOZ051-052-059>065-251000-
...EAST CENTRAL MISSOURI...

CITY           SKY/WX    TMP DP  RH WIND       PRES   REMARKS
ST LOUIS INTL  NOT AVBL
SPIRIT OF STL  CLEAR     59  55  87 CALM      30.00F
ST CHARLES     CLEAR     59  56  89 E6        30.01F

$$
MOZ072>076-082>087-097>100-106>115-251000-
...SOUTH CENTRAL AND SOUTHEAST MISSOURI...

CITY           SKY/WX    TMP DP  RH WIND       PRES   REMARKS
CAPE GIRARDEAU FOG       60  59  96 CALM      30.05R VSB 3/4
FARMINGTON     CLEAR     55  54  94 CALM      30.06F
POPLAR BLUFF   CLEAR     60  57  89 CALM      30.03S
WEST PLAINS    CLEAR     63  56  78 CALM      30.06F

$$



USA.gov is the U.S. government's official web portal to all federal, state and local government web resources and services.